Location: Ellerstadt
(49.4644°N, 8.2615°E)
Time: 05:05:51
(UTC+00:00)

CZ-4B R/B - Pass Details

Date: 03 March 2021
Orbit: 388 x 455 km, 97.6° (Epoch: 11 April)

Event Time Altitude Azimuth Distance (km) Brightness Sun altitude
Rises 18:39:01 0° 360° (N) 2,294 5.1 -14.7°
Reaches altitude 10° 18:41:19 10° 342° (NNW) 1,435 4.3 -15.1°
Maximum altitude 18:43:36 20° 294° (WNW) 998 4.1 -15.5°
Drops below altitude 10° 18:45:53 10° 245° (WSW) 1,437 4.8 -15.8°
Sets 18:48:11 0° 228° (SW) 2,298 5.6 -16.2°
